[[{"header":{"parameterUnit":"m.s-1","parameterCategory":1,"la1":30.2991,"la2":30.254,"lo1":-89.0895,"lo2":-89.0444,"dy":0.0017,"dx":0.0017,"nx":28,"ny":28,"refTime":"2026-02-06T09:00:00:Z","depth":0,"parameterNumber":2,"parameterNumberName":"U-component_of_WINDS"},"data":[0,0,0,0,0,0,0,0,0,0,0,0,0,0,0,0,0,0,0,0,0,0,0,0,0,0,0,0,0,0,0,0,0,0,0,0,0,0,0,0,0,0,0,0,0,0,0,0,0,0,0,0,0,0,0,0,0,0,-1.8708,-1.8708,0,-1.8727,-1.8727,-1.8728,-1.867,-1.8668,-1.8666,-1.8665,-1.8685,-1.8687,-1.8689,0,0,0,0,0,0,0,0,0,0,0,0,0,-1.8621,-1.8623,-1.8708,-1.8708,-1.8709,-1.8727,-1.8727,-1.8728,-1.867,-1.8668,-1.8666,-1.8664,-1.8684,-1.8687,-1.8689,0,0,0,0,0,0,0,0,0,0,0,0,0,-1.8652,-1.8624,-1.8708,-1.8682,-1.868,-1.8727,-1.8727,-1.8728,-1.8671,-1.8668,-1.8665,-1.8663,-1.8683,-1.8686,-1.869,-1.8763,0,0,-1.87,-1.8701,0,0,0,0,0,0,0,0,-1.865,-1.8655,-1.8686,-1.8684,-1.8682,-1.8693,-1.8704,-1.874,-1.8671,-1.8674,-1.8664,-1.8661,-1.869,-1.8692,-1.8702,-1.8764,-1.8765,-1.87,-1.8702,-1.8703,-1.8704,0,0,0,0,0,0,0,-1.8648,-1.8654,-1.8716,-1.8686,-1.8684,-1.8669,-1.8671,-1.8711,-1.8697,-1.8674,-1.8669,-1.8672,-1.8688,-1.8699,-1.8702,-1.8765,-1.87,-1.8703,-1.8705,-1.8706,-1.8889,-1.8891,0,0,0,0,0,0,-1.8649,-1.8652,-1.8715,-1.8716,-1.8659,-1.8673,-1.8675,-1.8692,-1.8696,-1.8694,-1.8675,-1.867,-1.8694,-1.8698,-1.8702,-1.8789,-1.8703,-1.8706,-1.8708,-1.8886,-1.8889,-1.8892,0,0,0,0,0,0,-1.8648,-1.8655,-1.8714,-1.8683,-1.869,-1.8677,-1.8698,-1.8694,-1.8705,-1.8697,-1.8694,-1.8688,-1.8692,-1.8698,-1.8748,-1.8789,-1.8708,-1.8711,-1.8882,-1.8887,-1.8891,-1.8963,0,0,0,0,0,0,-1.8645,-1.8655,-1.8683,-1.8684,-1.8691,-1.876,-1.87,-1.8696,-1.871,-1.8704,-1.8709,-1.8707,-1.8691,-1.8744,-1.8752,-1.8792,-1.8713,-1.8879,-1.8884,-1.8889,-1.8957,-1.8969,-1.898,0,0,0,0,0,-1.8642,-1.8703,-1.8685,-1.8693,-1.8726,-1.8763,-1.8767,-1.8747,-1.8714,-1.8742,-1.8737,-1.8707,-1.8783,-1.8749,-1.8758,-1.88,-1.8876,-1.8883,-1.8889,-1.8952,-1.8967,-1.898,0,0,0,0,0,0,-1.8707,-1.8702,-1.8683,-1.8745,-1.8755,-1.8753,-1.8788,-1.8763,-1.8783,-1.8776,-1.875,-1.8752,-1.8807,-1.8808,-1.8771,-1.8871,-1.8824,-1.8832,-1.8869,-1.8883,-1.8894,-1.8893,-1.8716,0,0,0,0,0,-1.8728,-1.8758,-1.8753,-1.8808,-1.8814,-1.88,-1.8815,-1.8799,-1.8808,-1.8812,-1.8811,-1.8821,-1.8847,-1.8865,-1.8888,-1.8956,-1.8957,-1.8989,-1.9001,-1.901,-1.9018,-1.9054,-1.9069,-1.8914,-1.8914,-1.8913,0,0,-1.8773,-1.8774,-1.8795,-1.8821,-1.8827,-1.8859,-1.8804,-1.884,-1.8864,-1.8818,-1.8866,-1.8865,-1.8874,-1.8934,-1.896,-1.8937,-1.9061,-1.9018,-1.9026,-1.9029,-1.9063,-1.9077,-1.909,-1.8918,-1.8917,-1.8916,0,0,-1.8871,-1.8875,-1.8922,-1.8928,-1.8937,-1.8928,-1.8939,-1.8941,-1.8939,-1.8986,-1.8952,-1.8979,-1.9025,-1.9033,-1.9043,-1.9144,-1.9117,-1.9152,-1.9212,-1.9248,-1.926,-1.9271,-1.9308,-1.9321,-1.916,-1.916,-1.916,0,-1.8926,-1.8973,-1.8949,-1.8988,-1.9,-1.8959,-1.9007,-1.9014,-1.9031,-1.9041,-1.9013,-1.907,-1.9073,-1.9134,-1.9159,-1.9168,-1.918,-1.9152,-1.926,-1.9271,-1.9281,-1.9315,-1.9329,-1.9164,-1.9164,-1.9163,-1.9163,0,-1.904,-1.9073,-1.9109,-1.9126,-1.9143,-1.9186,-1.9169,-1.9188,-1.917,-1.9163,-1.9212,-1.9215,-1.9238,-1.9251,-1.9234,-1.931,-1.9295,-1.9265,-1.9217,-1.93,-1.9332,-1.9345,-1.917,-1.9169,-1.9167,-1.9166,0,0,-1.9181,-1.9183,-1.9197,-1.9204,-1.9211,-1.9236,-1.9277,-1.9299,-1.9317,-1.9329,-1.9363,-1.9402,-1.9374,-1.9385,-1.9368,-1.94,-1.948,-1.9365,-1.9365,-1.9387,-1.9565,-1.9589,-1.9604,-1.9461,-1.9464,-1.9466,-1.9564,0,-1.9278,-1.9348,-1.9328,-1.9398,-1.9428,-1.9389,-1.9425,-1.9433,-1.9427,-1.9452,-1.9445,-1.9474,-1.9433,-1.944,-1.9469,-1.9464,-1.9515,-1.9456,-1.9493,-1.9495,-1.9494,-1.9621,-1.9646,-1.9739,-1.9576,-1.9579,-1.958,0,-1.9401,-1.9419,-1.9492,-1.9494,-1.9505,-1.9538,-1.9557,-1.9581,-1.9589,-1.9582,-1.9595,-1.9571,-1.9611,-1.9562,-1.9617,-1.9578,-1.9591,-1.9591,-1.9594,-1.9598,-1.9544,-1.9629,-1.9768,-1.9783,-1.96,-1.9598,-1.9597,0,-1.9498,-1.9539,-1.9589,-1.9596,-1.9599,-1.9622,-1.9624,-1.963,-1.9645,-1.9661,-1.967,-1.9691,-1.9703,-1.972,-1.9703,-1.9668,-1.976,-1.971,-1.9757,-1.9757,-1.9779,-1.9778,-1.9924,-1.9786,-1.9786,-1.9785,-1.9785,0,-1.961,-1.9657,-1.9632,-1.9663,-1.9714,-1.969,-1.9741,-1.9738,-1.9743,-1.9773,-1.974,-1.9768,-1.9743,-1.9769,-1.9755,-1.9803,-1.9808,-1.9805,-1.9801,-1.9808,-1.9809,-1.9818,-1.9812,-1.9789,-1.9788,-1.9788,-1.9787,0,-1.9727,-1.9713,-1.9764,-1.9762,-1.9763,-1.9801,-1.9799,-1.9827,-1.9818,-1.9856,-1.9863,-1.985,-1.9879,-1.9862,-1.9892,-1.9883,-1.9945,-1.9932,-1.9943,-1.994,-1.9988,-1.9984,-2.0145,-2.0165,-2.0014,-2.0015,-2.0017,0,-1.98,-1.9835,-1.9837,-1.9854,-1.9859,-1.9887,-1.9902,-1.9879,-1.9896,-1.9907,-1.9934,-1.996,-1.9979,-2.0027,-2.002,-2.0042,-2.003,-2.0085,-2.0033,-2.004,-2.0032,-2.0031,-2.0035,-2.0096,-2.0098,-2.0099,-2.01,0,-1.9932,-1.9923,-1.9946,-1.9966,-1.9985,-2.0,-2.0012,-2.0028,-2.0005,-2.0026,-2.0055,-2.007,-2.01,-2.0126,-2.0145,-2.0147,-2.012,-2.0116,-2.0128,-2.0137,-2.0143,-2.0142,-1.9973,-2.0113,-2.0112,-2.0111,-2.011,-2.011,-2.003,-2.006,-2.0065,-2.0092,-2.0098,-2.011,-2.0137,-2.0131,-2.0155,-2.0178,-2.0162,-2.0197,-2.0203,-2.0226,-2.0231,-2.0257,-2.0235,-2.0253,-2.0258,-2.0263,-2.027,-2.0137,-2.0261,-2.026,-2.026,-2.026,-2.0259,0,-2.0161,-2.0163,-2.0187,-2.0205,-2.0226,-2.0198,-2.021,-2.0229,-2.026,-2.0268,-2.0288,-2.0321,-2.0346,-2.0341,-2.0363,-2.0385,-2.0374,-2.0392,-2.0391,-2.0392,-2.0288,-2.0275,-2.0401,-2.0401,-2.0401,-2.0401,-2.0401,-2.0401,-2.0232,-2.028,-2.0272,-2.0323,-2.0324,-2.0357,-2.0367,-2.0377,-2.0384,-2.0422,-2.0443,-2.0439,-2.0442,-2.0464,-2.0486,-2.0483,-2.0494,-2.0517,-2.051,-2.0413,-2.0399,-2.0386,-2.0374,-2.0519,-2.0519,-2.0613,-2.0614,-2.0614]},{"header":{"parameterUnit":"m.s-1","parameterCategory":1,"la1":30.2991,"la2":30.254,"lo1":-89.0895,"lo2":-89.0444,"dy":0.0017,"dx":0.0017,"nx":28,"ny":28,"refTime":"2026-02-06T09:00:00:Z","depth":0,"parameterNumber":3,"parameterNumberName":"V-component_of_WINDS"},"data":[0,0,0,0,0,0,0,0,0,0,0,0,0,0,0,0,0,0,0,0,0,0,0,0,0,0,0,0,0,0,0,0,0,0,0,0,0,0,0,0,0,0,0,0,0,0,0,0,0,0,0,0,0,0,0,0,0,0,-4.467,-4.4672,0,-4.4816,-4.4817,-4.4819,-4.4804,-4.4801,-4.4799,-4.4797,-4.494,-4.4946,-4.4951,0,0,0,0,0,0,0,0,0,0,0,0,0,-4.4376,-4.4381,-4.467,-4.4672,-4.4674,-4.4815,-4.4817,-4.4819,-4.4804,-4.4801,-4.4799,-4.4796,-4.4938,-4.4945,-4.4952,0,0,0,0,0,0,0,0,0,0,0,0,0,-4.451,-4.4383,-4.467,-4.4684,-4.4686,-4.4815,-4.4817,-4.482,-4.4805,-4.4801,-4.4798,-4.4795,-4.4936,-4.4944,-4.4953,-4.5076,0,0,-4.498,-4.4984,0,0,0,0,0,0,0,0,-4.4503,-4.4521,-4.468,-4.4683,-4.4686,-4.4788,-4.4766,-4.4905,-4.4805,-4.476,-4.4797,-4.4793,-4.4892,-4.4904,-4.4938,-4.5082,-4.5088,-4.4981,-4.4986,-4.499,-4.4992,0,0,0,0,0,0,0,-4.4493,-4.4515,-4.4728,-4.4682,-4.4686,-4.4681,-4.4696,-4.4792,-4.4843,-4.4763,-4.4763,-4.478,-4.4893,-4.493,-4.4942,-4.509,-4.4981,-4.4988,-4.4994,-4.4997,-4.5343,-4.5347,0,0,0,0,0,0,-4.4482,-4.4507,-4.4723,-4.4732,-4.4584,-4.4689,-4.4706,-4.4759,-4.4842,-4.4851,-4.4783,-4.4779,-4.4916,-4.4931,-4.4947,-4.5097,-4.499,-4.4998,-4.5003,-4.534,-4.5344,-4.5349,0,0,0,0,0,0,-4.4475,-4.4501,-4.4717,-4.462,-4.4647,-4.4698,-4.4757,-4.4763,-4.4801,-4.4857,-4.4865,-4.4812,-4.4914,-4.4934,-4.5044,-4.5102,-4.5002,-4.501,-4.5335,-4.5341,-4.5346,-4.5398,0,0,0,0,0,0,-4.4467,-4.4499,-4.4547,-4.4621,-4.4652,-4.4814,-4.476,-4.4769,-4.4817,-4.4813,-4.4886,-4.4895,-4.4913,-4.5031,-4.5053,-4.5112,-4.5017,-4.533,-4.5338,-4.5345,-4.5391,-4.5404,-4.5416,0,0,0,0,0,-4.4456,-4.4554,-4.4549,-4.4575,-4.4713,-4.4817,-4.4835,-4.4856,-4.4821,-4.487,-4.4906,-4.4893,-4.5092,-4.5043,-4.5067,-4.5129,-4.5327,-4.5336,-4.5344,-4.5385,-4.5402,-4.5416,0,0,0,0,0,0,-4.4482,-4.4564,-4.456,-4.4684,-4.4744,-4.4815,-4.4876,-4.4872,-4.4941,-4.4935,-4.4956,-4.4972,-4.5084,-4.5117,-4.5061,-4.5253,-4.5204,-4.5218,-4.5227,-4.5243,-4.5256,-4.5245,-4.5025,0,0,0,0,0,-4.4503,-4.4582,-4.4648,-4.4752,-4.4782,-4.4824,-4.487,-4.4881,-4.4943,-4.4968,-4.5012,-4.5072,-4.5148,-4.5197,-4.527,-4.5396,-4.5412,-4.5451,-4.5463,-4.5473,-4.5485,-4.5555,-4.5573,-4.5377,-4.5377,-4.5377,0,0,-4.4545,-4.46,-4.4648,-4.4758,-4.4806,-4.4887,-4.4845,-4.4932,-4.4992,-4.498,-4.5088,-4.5123,-4.519,-4.531,-4.5364,-4.5341,-4.5543,-4.5484,-4.5492,-4.5498,-4.5566,-4.5584,-4.5601,-4.5383,-4.5382,-4.5381,0,0,-4.4665,-4.4714,-4.4806,-4.4856,-4.493,-4.4958,-4.498,-4.5052,-4.5075,-4.5184,-4.5178,-4.5248,-4.5379,-4.5428,-4.547,-4.561,-4.5601,-4.5633,-4.5698,-4.5766,-4.5781,-4.5795,-4.5846,-4.5864,-4.5644,-4.5645,-4.5645,0,-4.4708,-4.4831,-4.4853,-4.4942,-4.4991,-4.4988,-4.5081,-4.5127,-4.522,-4.5253,-4.5227,-4.5392,-4.5437,-4.5568,-4.5603,-4.5636,-4.5662,-4.5624,-4.5777,-4.5792,-4.5805,-4.5853,-4.5872,-4.5648,-4.5648,-4.5647,-4.5647,0,-4.488,-4.4966,-4.5031,-4.5125,-4.5181,-4.5271,-4.5307,-4.536,-4.5367,-4.5397,-4.5508,-4.5563,-4.5647,-4.5679,-4.5685,-4.5812,-4.5795,-4.5773,-4.5724,-4.5827,-4.5873,-4.5891,-4.5653,-4.5652,-4.5651,-4.565,0,0,-4.5018,-4.5126,-4.5149,-4.5192,-4.5275,-4.5341,-4.5431,-4.5516,-4.5562,-4.5627,-4.5703,-4.5814,-4.5795,-4.5843,-4.5854,-4.5914,-4.6023,-4.5885,-4.5886,-4.5909,-4.6166,-4.6183,-4.6204,-4.6017,-4.6021,-4.6024,-4.6161,0,-4.5146,-4.5309,-4.5333,-4.5475,-4.5555,-4.5554,-4.5632,-4.5691,-4.5721,-4.5792,-4.5825,-4.5904,-4.5872,-4.5901,-4.5961,-4.5997,-4.6075,-4.5987,-4.6087,-4.6091,-4.6071,-4.6228,-4.6246,-4.6372,-4.6179,-4.6182,-4.6184,0,-4.5317,-4.539,-4.5541,-4.5615,-4.5649,-4.5719,-4.5801,-4.5869,-4.5935,-4.5953,-4.6008,-4.6013,-4.6105,-4.6053,-4.6181,-4.6121,-4.6163,-4.6187,-4.6193,-4.6203,-4.6144,-4.6243,-4.6413,-4.6432,-4.6212,-4.621,-4.6208,0,-4.5403,-4.5539,-4.5648,-4.5684,-4.5773,-4.5823,-4.5861,-4.5925,-4.5975,-4.6045,-4.6078,-4.6157,-4.62,-4.6261,-4.6287,-4.6246,-4.6413,-4.6363,-4.643,-4.643,-4.6465,-4.6463,-4.6645,-4.6492,-4.6492,-4.6491,-4.6491,0,-4.5544,-4.5636,-4.5688,-4.5755,-4.5859,-4.5885,-4.5987,-4.6024,-4.608,-4.6153,-4.6156,-4.6224,-4.6254,-4.6327,-4.6347,-4.645,-4.6469,-4.6486,-4.649,-4.6486,-4.6484,-4.6514,-4.6506,-4.6496,-4.6495,-4.6494,-4.6493,0,-4.5658,-4.5696,-4.5815,-4.589,-4.5911,-4.5985,-4.6048,-4.6112,-4.6144,-4.6236,-4.6259,-4.6307,-4.6393,-4.6425,-4.6528,-4.6542,-4.6662,-4.6659,-4.664,-4.6642,-4.6708,-4.6701,-4.6916,-4.6945,-4.6772,-4.6774,-4.6775,0,-4.5745,-4.5817,-4.5901,-4.5952,-4.5993,-4.6074,-4.6127,-4.6155,-4.621,-4.6292,-4.6346,-4.6432,-4.6503,-4.6639,-4.6682,-4.6762,-4.6761,-4.6831,-4.6773,-4.6767,-4.6763,-4.6758,-4.6766,-4.6841,-4.6843,-4.6844,-4.6846,0,-4.5896,-4.5912,-4.5989,-4.6074,-4.6137,-4.6204,-4.6268,-4.6309,-4.6348,-4.6408,-4.6498,-4.6553,-4.666,-4.6745,-4.6828,-4.6865,-4.6862,-4.6864,-4.6884,-4.688,-4.6867,-4.6876,-4.667,-4.6859,-4.6857,-4.6856,-4.6856,-4.6855,-4.6,-4.6065,-4.6135,-4.6221,-4.6273,-4.6335,-4.64,-4.644,-4.6516,-4.6608,-4.6619,-4.6715,-4.678,-4.6891,-4.6933,-4.7007,-4.6988,-4.7017,-4.7024,-4.7031,-4.7036,-4.6856,-4.7022,-4.7022,-4.7021,-4.7021,-4.7021,0,-4.6152,-4.6198,-4.6277,-4.6369,-4.6437,-4.6431,-4.6503,-4.6559,-4.6644,-4.6707,-4.6777,-4.688,-4.6963,-4.7014,-4.7098,-4.7147,-4.7148,-4.7168,-4.7165,-4.7174,-4.7048,-4.7023,-4.7167,-4.7167,-4.7167,-4.7167,-4.7166,-4.7166,-4.6239,-4.6348,-4.6373,-4.6509,-4.6553,-4.665,-4.6692,-4.6748,-4.6798,-4.6914,-4.6985,-4.7018,-4.7076,-4.7164,-4.724,-4.7252,-4.7283,-4.7305,-4.7316,-4.7198,-4.7183,-4.7168,-4.7145,-4.7312,-4.7312,-4.7436,-4.7437,-4.7438]}]]